Tracking 25744 objects as of 24-Jun-2022
HD Live streaming from Space Station
objects crossing your sky now

INTELSAT 3-F8

Track INTELSAT 3-F8 now!
INTELSAT 3-F8 is classified as:


NORAD ID: 4478
Int'l Code: 1970-055A
Perigee: 33,903.9 km
Apogee: 36,585.3 km
Inclination: 1.9 °
Period: 1,408.1 minutes
Semi major axis: 41615 km
RCS: 2.5127 m2 (large)
Launch date: July 23, 1970
Source: International Telecommunications Satellite Organization (ITSO)
Launch site: AIR FORCE EASTERN TEST RANGE (AFETR)
aabbcc
Your satellite tracking list
Your tracking list is empty




NASA's NSSDC Master Catalog

Two Line Element Set (TLE):
1 04478U 70055A   22175.34702324  .00000030  00000-0  00000-0 0  9995
2 04478   1.8882  80.6835 0322166  73.8627 240.0588  1.02263031107952
Source of the keplerian elements: AFSPC